[[{"header":{"parameterUnit":"m.s-1","parameterCategory":1,"la1":30.2991,"la2":30.254,"lo1":-89.0895,"lo2":-89.0444,"dy":0.0017,"dx":0.0017,"nx":28,"ny":28,"refTime":"2024-12-24T03:00:00:Z","depth":0,"parameterNumber":2,"parameterNumberName":"U-component_of_WINDS"},"data":[0,0,0,0,0,0,0,0,0,0,0,0,0,0,0,0,0,0,0,0,0,0,0,0,0,0,0,0,0,0,0,0,0,0,0,0,0,0,0,0,0,0,0,0,0,0,0,0,0,0,0,0,0,0,0,0,0,0,-3.6038,-3.6038,0,-3.6029,-3.6029,-3.6029,-3.5896,-3.5892,-3.5889,-3.5886,-3.5882,-3.5885,-3.5888,0,0,0,0,0,0,0,0,0,0,0,0,0,-3.5945,-3.5948,-3.6038,-3.6038,-3.6038,-3.6029,-3.6029,-3.6029,-3.5896,-3.5892,-3.5888,-3.5884,-3.5881,-3.5885,-3.5888,0,0,0,0,0,0,0,0,0,0,0,0,0,-3.5966,-3.5948,-3.6038,-3.597,-3.5964,-3.6029,-3.6029,-3.6029,-3.5897,-3.5892,-3.5887,-3.5882,-3.588,-3.5884,-3.5889,-3.602,0,0,-3.5903,-3.5905,0,0,0,0,0,0,0,0,-3.5965,-3.597,-3.598,-3.5975,-3.5968,-3.5958,-3.5995,-3.6026,-3.5899,-3.5923,-3.5886,-3.588,-3.5912,-3.5913,-3.5923,-3.6019,-3.6019,-3.5903,-3.5906,-3.5908,-3.5909,0,0,0,0,0,0,0,-3.5964,-3.5969,-3.6034,-3.5981,-3.5973,-3.5942,-3.594,-3.6,-3.5946,-3.592,-3.5911,-3.5911,-3.5908,-3.5919,-3.5922,-3.6019,-3.5903,-3.5907,-3.591,-3.5912,-3.6227,-3.6232,0,0,0,0,0,0,-3.5971,-3.5969,-3.6035,-3.6034,-3.5954,-3.5948,-3.5945,-3.5967,-3.5945,-3.5937,-3.5916,-3.5905,-3.5914,-3.5917,-3.5922,-3.6076,-3.5908,-3.5912,-3.5915,-3.6221,-3.6228,-3.6234,0,0,0,0,0,0,-3.597,-3.5978,-3.6035,-3.5999,-3.6004,-3.5955,-3.5981,-3.5969,-3.5981,-3.5941,-3.5932,-3.5937,-3.591,-3.5915,-3.5997,-3.6074,-3.5914,-3.5919,-3.6215,-3.6223,-3.6231,-3.6386,0,0,0,0,0,0,-3.5967,-3.5978,-3.6026,-3.6001,-3.6006,-3.6109,-3.5985,-3.5973,-3.5988,-3.5974,-3.5959,-3.5952,-3.5906,-3.5991,-3.6002,-3.6078,-3.5922,-3.6208,-3.6219,-3.6228,-3.6374,-3.6398,-3.642,0,0,0,0,0,-3.5965,-3.607,-3.6029,-3.6038,-3.6064,-3.6114,-3.6117,-3.6061,-3.5995,-3.6044,-3.6019,-3.5952,-3.6064,-3.6,-3.6011,-3.609,-3.6202,-3.6215,-3.6228,-3.6363,-3.6393,-3.6419,0,0,0,0,0,0,-3.6106,-3.6065,-3.6019,-3.6119,-3.6121,-3.6091,-3.6151,-3.6094,-3.6116,-3.6102,-3.6034,-3.6031,-3.6125,-3.6115,-3.6045,-3.6218,-3.6122,-3.6137,-3.6221,-3.6249,-3.6272,-3.6274,-3.5926,0,0,0,0,0,-3.6148,-3.619,-3.6153,-3.6245,-3.6248,-3.62,-3.6219,-3.6176,-3.6176,-3.6176,-3.6157,-3.6161,-3.6197,-3.6222,-3.6253,-3.6371,-3.6368,-3.6431,-3.6454,-3.6473,-3.6488,-3.6554,-3.6583,-3.6276,-3.6275,-3.6275,0,0,-3.6237,-3.622,-3.6251,-3.6273,-3.6269,-3.6317,-3.6201,-3.6255,-3.629,-3.6184,-3.6261,-3.6248,-3.6248,-3.6349,-3.6393,-3.6344,-3.6572,-3.6489,-3.6505,-3.6509,-3.657,-3.6599,-3.6625,-3.6284,-3.6283,-3.6281,0,0,-3.6424,-3.6414,-3.6491,-3.649,-3.6485,-3.6453,-3.6472,-3.6451,-3.6438,-3.6513,-3.6436,-3.6478,-3.6541,-3.6545,-3.6555,-3.6747,-3.6688,-3.6759,-3.688,-3.6945,-3.697,-3.6991,-3.7063,-3.7089,-3.6773,-3.6774,-3.6774,0,-3.6535,-3.6601,-3.6538,-3.6598,-3.6612,-3.6517,-3.6597,-3.6599,-3.6606,-3.6619,-3.6563,-3.6643,-3.6635,-3.6739,-3.6786,-3.6796,-3.6818,-3.6761,-3.6971,-3.6992,-3.7011,-3.7079,-3.7105,-3.6783,-3.6782,-3.6781,-3.678,0,-3.674,-3.6788,-3.6851,-3.686,-3.688,-3.695,-3.69,-3.6929,-3.6885,-3.686,-3.694,-3.6928,-3.6957,-3.6978,-3.6935,-3.7077,-3.7047,-3.6982,-3.6885,-3.705,-3.7113,-3.7138,-3.6796,-3.6792,-3.679,-3.6788,0,0,-3.7015,-3.6989,-3.7014,-3.7019,-3.7008,-3.7045,-3.7112,-3.7139,-3.7167,-3.7175,-3.7232,-3.7289,-3.723,-3.7242,-3.7199,-3.7256,-3.7414,-3.7184,-3.7184,-3.7231,-3.7573,-3.7624,-3.7655,-3.7373,-3.7378,-3.7381,-3.7575,0,-3.7198,-3.7309,-3.7256,-3.7375,-3.742,-3.7332,-3.7391,-3.7393,-3.7372,-3.7409,-3.7386,-3.7428,-3.7345,-3.7353,-3.7405,-3.7383,-3.7482,-3.7368,-3.7429,-3.7432,-3.7434,-3.7687,-3.774,-3.7923,-3.7598,-3.7602,-3.7605,0,-3.7425,-3.7444,-3.7568,-3.7552,-3.7569,-3.7623,-3.7645,-3.7681,-3.7682,-3.7663,-3.7678,-3.7624,-3.7691,-3.7593,-3.7688,-3.7612,-3.7634,-3.7627,-3.7633,-3.7639,-3.753,-3.7703,-3.7979,-3.8008,-3.7643,-3.764,-3.7637,0,-3.7618,-3.7673,-3.7755,-3.7761,-3.7744,-3.7785,-3.778,-3.7776,-3.7798,-3.7818,-3.7831,-3.786,-3.7876,-3.7901,-3.7857,-3.7788,-3.7959,-3.7856,-3.7948,-3.795,-3.799,-3.7988,-3.8277,-3.7999,-3.7999,-3.7998,-3.7998,0,-3.7829,-3.7909,-3.7842,-3.7893,-3.7981,-3.792,-3.801,-3.7996,-3.7994,-3.8043,-3.7968,-3.8016,-3.7953,-3.7996,-3.7962,-3.8048,-3.8055,-3.8044,-3.8035,-3.8052,-3.8054,-3.8067,-3.8055,-3.8006,-3.8004,-3.8003,-3.8001,0,-3.8059,-3.8017,-3.8102,-3.8079,-3.8076,-3.8142,-3.8124,-3.8172,-3.8146,-3.8209,-3.822,-3.8181,-3.8227,-3.8185,-3.823,-3.8207,-3.8323,-3.8293,-3.8322,-3.8315,-3.8411,-3.8404,-3.872,-3.876,-3.8455,-3.8458,-3.846,0,-3.8198,-3.8257,-3.8242,-3.8269,-3.8269,-3.8313,-3.8334,-3.8277,-3.8303,-3.8311,-3.8359,-3.8399,-3.8429,-3.8508,-3.8485,-3.852,-3.8493,-3.8601,-3.8498,-3.8515,-3.8499,-3.8497,-3.8505,-3.8624,-3.8627,-3.863,-3.8632,0,-3.845,-3.8427,-3.8459,-3.8487,-3.8514,-3.8533,-3.8546,-3.8573,-3.8515,-3.8548,-3.8595,-3.8618,-3.8664,-3.8707,-3.8734,-3.8732,-3.8675,-3.8665,-3.8689,-3.8709,-3.8725,-3.8721,-3.8383,-3.8658,-3.8656,-3.8654,-3.8653,-3.8651,-3.864,-3.8691,-3.8689,-3.8729,-3.8733,-3.8748,-3.8793,-3.8773,-3.881,-3.8843,-3.8808,-3.8866,-3.8869,-3.8901,-3.8906,-3.8952,-3.8907,-3.8941,-3.895,-3.896,-3.8975,-3.8715,-3.8957,-3.8956,-3.8955,-3.8954,-3.8954,0,-3.8891,-3.8886,-3.8924,-3.8945,-3.8978,-3.8919,-3.8931,-3.8964,-3.9015,-3.9023,-3.9053,-3.911,-3.9151,-3.9132,-3.9169,-3.921,-3.9185,-3.9222,-3.922,-3.9222,-3.9011,-3.8989,-3.9242,-3.9242,-3.9242,-3.9242,-3.9242,-3.9242,-3.9026,-3.9109,-3.9087,-3.9173,-3.9167,-3.9223,-3.9236,-3.9251,-3.9257,-3.9322,-3.9356,-3.9343,-3.9341,-3.9378,-3.9415,-3.9408,-3.9427,-3.9474,-3.9459,-3.9264,-3.9236,-3.9209,-3.9187,-3.9478,-3.9478,-3.9665,-3.9667,-3.9668]},{"header":{"parameterUnit":"m.s-1","parameterCategory":1,"la1":30.2991,"la2":30.254,"lo1":-89.0895,"lo2":-89.0444,"dy":0.0017,"dx":0.0017,"nx":28,"ny":28,"refTime":"2024-12-24T03:00:00:Z","depth":0,"parameterNumber":3,"parameterNumberName":"V-component_of_WINDS"},"data":[0,0,0,0,0,0,0,0,0,0,0,0,0,0,0,0,0,0,0,0,0,0,0,0,0,0,0,0,0,0,0,0,0,0,0,0,0,0,0,0,0,0,0,0,0,0,0,0,0,0,0,0,0,0,0,0,0,0,0.3538,0.3538,0,0.3514,0.3513,0.3513,0.3515,0.3515,0.3515,0.3516,0.3486,0.3485,0.3484,0,0,0,0,0,0,0,0,0,0,0,0,0,0.3584,0.3583,0.3539,0.3538,0.3538,0.3514,0.3513,0.3513,0.3515,0.3515,0.3516,0.3516,0.3486,0.3485,0.3484,0,0,0,0,0,0,0,0,0,0,0,0,0,0.3562,0.3583,0.3539,0.3536,0.3535,0.3514,0.3513,0.3513,0.3515,0.3515,0.3516,0.3516,0.3487,0.3485,0.3483,0.3461,0,0,0.3478,0.3477,0,0,0,0,0,0,0,0,0.3563,0.356,0.3537,0.3536,0.3536,0.3518,0.3518,0.3495,0.3514,0.3522,0.3516,0.3517,0.3496,0.3493,0.3487,0.346,0.3459,0.3478,0.3477,0.3476,0.3476,0,0,0,0,0,0,0,0.3565,0.3562,0.3529,0.3536,0.3536,0.3535,0.3532,0.3514,0.3506,0.3522,0.3522,0.3519,0.3496,0.3489,0.3487,0.3458,0.3478,0.3476,0.3475,0.3475,0.3411,0.3411,0,0,0,0,0,0,0.3568,0.3563,0.3529,0.3528,0.3551,0.3534,0.3531,0.3523,0.3506,0.3504,0.3519,0.3519,0.3492,0.3489,0.3486,0.3458,0.3476,0.3475,0.3474,0.3412,0.3411,0.341,0,0,0,0,0,0,0.3569,0.3565,0.353,0.3545,0.3541,0.3532,0.3523,0.3522,0.3516,0.3504,0.3502,0.3514,0.3492,0.3488,0.3468,0.3457,0.3474,0.3472,0.3413,0.3412,0.3411,0.3403,0,0,0,0,0,0,0.357,0.3565,0.3557,0.3545,0.354,0.3514,0.3523,0.3521,0.3513,0.3514,0.3499,0.3497,0.3492,0.347,0.3466,0.3455,0.3471,0.3413,0.3412,0.3411,0.3404,0.3402,0.34,0,0,0,0,0,0.3572,0.3555,0.3557,0.3553,0.353,0.3513,0.351,0.3506,0.3512,0.3504,0.3497,0.3497,0.346,0.3468,0.3463,0.3452,0.3414,0.3412,0.3411,0.3405,0.3403,0.34,0,0,0,0,0,0,0.3564,0.3553,0.3555,0.3535,0.3525,0.3513,0.3502,0.3504,0.3491,0.3492,0.3487,0.3483,0.3462,0.3455,0.3465,0.3429,0.3437,0.3435,0.3435,0.3432,0.343,0.3431,0.3469,0,0,0,0,0,0.3561,0.3549,0.3539,0.3522,0.3518,0.3511,0.3503,0.3502,0.3491,0.3486,0.3477,0.3466,0.3451,0.3441,0.3427,0.3404,0.34,0.3394,0.3392,0.339,0.3387,0.3374,0.3371,0.3405,0.3406,0.3406,0,0,0.3552,0.3545,0.3537,0.3521,0.3513,0.3499,0.3507,0.3493,0.3482,0.3483,0.3464,0.3457,0.3444,0.3422,0.3411,0.3415,0.3377,0.3388,0.3387,0.3385,0.3372,0.3369,0.3366,0.3404,0.3405,0.3405,0,0,0.3529,0.3523,0.3508,0.3501,0.349,0.3486,0.3482,0.3471,0.3467,0.3448,0.3448,0.3436,0.3411,0.3401,0.3393,0.3369,0.3368,0.3364,0.3353,0.334,0.3337,0.3334,0.3324,0.3321,0.3362,0.3362,0.3362,0,0.3519,0.35,0.35,0.3485,0.3478,0.348,0.3464,0.3457,0.3441,0.3435,0.344,0.341,0.3401,0.3376,0.3371,0.3364,0.3359,0.3365,0.3338,0.3335,0.3333,0.3323,0.332,0.3362,0.3362,0.3362,0.3362,0,0.3489,0.3475,0.3464,0.3451,0.3442,0.3427,0.3423,0.3414,0.3414,0.3409,0.3389,0.3379,0.3363,0.3358,0.3356,0.3333,0.3335,0.3339,0.3347,0.3329,0.332,0.3316,0.3361,0.3361,0.3361,0.3361,0,0,0.3458,0.3446,0.3442,0.3436,0.3425,0.3414,0.3399,0.3385,0.3377,0.3367,0.3353,0.3333,0.3337,0.3327,0.3325,0.3314,0.3294,0.3319,0.3319,0.3314,0.3266,0.3262,0.3258,0.3295,0.3295,0.3294,0.3267,0,0.3433,0.3407,0.3407,0.3383,0.337,0.3374,0.336,0.3352,0.3347,0.3335,0.333,0.3315,0.3322,0.3317,0.3306,0.3299,0.3284,0.3301,0.328,0.328,0.3282,0.3254,0.3249,0.3224,0.3264,0.3263,0.3263,0,0.34,0.339,0.3365,0.3357,0.3351,0.3339,0.3327,0.3316,0.3306,0.3303,0.3294,0.3294,0.3278,0.3288,0.3264,0.3275,0.3267,0.3263,0.3262,0.3258,0.3268,0.3247,0.3216,0.3211,0.3257,0.3258,0.3258,0,0.3378,0.3359,0.3342,0.3337,0.3326,0.3318,0.3313,0.3304,0.3296,0.3285,0.3279,0.3266,0.3258,0.3247,0.3243,0.3251,0.3219,0.3229,0.3215,0.3215,0.3206,0.3206,0.3171,0.3204,0.3204,0.3204,0.3204,0,0.3349,0.3333,0.3332,0.3321,0.3303,0.3303,0.3285,0.3281,0.3273,0.326,0.3263,0.3251,0.3247,0.3234,0.3231,0.3211,0.3208,0.3204,0.3203,0.3203,0.3203,0.3196,0.3196,0.3203,0.3204,0.3204,0.3204,0,0.332,0.3319,0.33,0.3293,0.3291,0.3278,0.3271,0.326,0.3258,0.3241,0.3238,0.3232,0.3217,0.3213,0.3194,0.3192,0.3169,0.317,0.3172,0.3172,0.3157,0.3158,0.3114,0.3108,0.3147,0.3147,0.3147,0,0.3301,0.3289,0.3281,0.3274,0.3269,0.3257,0.3249,0.3249,0.324,0.3229,0.3219,0.3205,0.3193,0.3169,0.3162,0.3148,0.3148,0.3134,0.3145,0.3146,0.3145,0.3145,0.3143,0.3131,0.313,0.313,0.313,0,0.3265,0.3266,0.3255,0.3245,0.3236,0.3227,0.3219,0.3212,0.3211,0.3201,0.3187,0.3178,0.316,0.3145,0.3131,0.3125,0.3126,0.3127,0.3122,0.312,0.3121,0.3119,0.3164,0.3127,0.3127,0.3127,0.3127,0.3128,0.3239,0.3229,0.3222,0.321,0.3204,0.3197,0.3186,0.3183,0.3172,0.3158,0.3159,0.3143,0.3133,0.3115,0.3108,0.3095,0.3099,0.3093,0.3091,0.3089,0.3087,0.3126,0.3092,0.3093,0.3093,0.3093,0.3093,0,0.3202,0.3199,0.3188,0.3177,0.3168,0.3173,0.3164,0.3156,0.3142,0.3134,0.3123,0.3107,0.3093,0.3086,0.3072,0.3063,0.3063,0.3059,0.3058,0.3056,0.3085,0.3089,0.3059,0.3059,0.3059,0.3059,0.3059,0.3059,0.3181,0.3164,0.3164,0.3144,0.314,0.3125,0.312,0.3113,0.3106,0.3088,0.3077,0.3074,0.3067,0.3052,0.304,0.3038,0.3032,0.3027,0.3025,0.3051,0.3055,0.3058,0.3062,0.3026,0.3026,0.2997,0.2997,0.2997]}]]